Startseite
Über Mich
AHP4
Galerie
Sehschlangen
Tourenbuch
Bookmarks
Elektronik
Bewertung
Geschichten
[Tagesmessung] [Jahreswerte] [Information]

Messwerte vom 26.01.2022

Die letzten Messwerte von 23:58:48 Uhr:
KategorieMesswert
Temperatur [°C]2
Luftdruck [mBar]1008
Sonneneinstrahlung0
Wind [km/h]4 aus Ost
Niederschlag [l/m²]0
rel.Luftfeucht.96.6%
CO2 [ppm]710

Diagramme
Messwerte vom 26.01.2022
Tagesaggregation
KategorieMinimumMaximumSchnittSumme
Temperatur [°C]121.7750
Luftdruck [mBar]100810161012.0646
Sonneneinstrahlung17747.7750
Wind [km/h]21
rF [%]96.696.696.6
Niederschlag [l/m²]0
CO2 [ppm]403710491.1
Einordnung alsKalter Tag

Messungen an benachbarten Tagen: Zur Jahresaggregation 2022
Tabelle aller Messwerte
UhrzeitTemperatur [°C]Luftdruck [mBar]SonneWind [km/h]RichtungRegen [l/m²]rF [%]CO2 [ppm]
00:01:47 2 1016 0 1 NO 0 96.6 526
00:04:49 2 1015 0 0 SO 0 96.6 530
00:07:48 2 1014 0 0 W 0 96.6 534
00:10:45 2 1015 0 0 S 0 96.6 524
00:13:48 2 1015 0 0 O 0 96.6 513
00:16:46 2 1014 0 1 SO 0 96.6 514
00:19:45 2 1015 0 1 S 0 96.6 515
00:22:47 2 1015 0 0 S 0 96.6 519
00:25:47 2 1015 0 0 S 0 96.6 515
00:28:47 2 1014 0 0 S 0 96.6 516
00:31:46 2 1014 0 0 W 0 96.6 514
00:34:48 2 1015 0 1 SW 0 96.6 513
00:37:47 2 1014 0 2 W 0 96.6 505
00:40:46 2 1015 0 0 S 0 96.6 515
00:43:46 2 1014 0 0 SO 0 96.6 516
00:46:48 2 1014 0 0 SO 0 96.6 510
00:49:48 2 1014 0 2 NO 0 96.6 501
00:52:48 2 1014 0 1 NW 0 96.6 493
00:55:46 2 1014 0 1 SW 0 96.6 495
00:58:46 2 1014 0 0 SW 0 96.6 500
01:01:46 2 1014 0 0 W 0 96.6 507
01:04:47 2 1015 0 1 W 0 96.6 504
01:07:47 2 1014 0 0 SW 0 96.6 498
01:10:47 2 1014 0 0 SO 0 96.6 501
01:13:46 2 1014 0 0 SO 0 96.6 501
01:16:46 2 1014 0 0 SW 0 96.6 501
01:19:46 2 1014 0 0 S 0 96.6 501
01:22:47 2 1014 0 0 S 0 96.6 504
01:25:46 2 1014 0 0 S 0 96.6 507
01:28:46 2 1014 0 2 S 0 96.6 507
01:31:46 2 1014 0 0 W 0 96.6 504
01:34:46 2 1015 0 2 NW 0 96.6 501
01:37:47 2 1014 0 2 NW 0 96.6 507
01:40:47 2 1014 0 2 NW 0 96.6 492
01:43:48 2 1015 0 2 NW 0 96.6 487
01:46:47 2 1015 0 4 W 0 96.6 486
01:49:45 2 1014 0 2 W 0 96.6 481
01:52:47 2 1014 0 3 W 0 96.6 475
01:55:48 2 1014 0 0 S 0 96.6 475
01:58:45 2 1014 0 2 0 96.6 487
02:01:47 2 1014 0 2 S 0 96.6 487
02:04:49 2 1014 0 1 NO 0 96.6 478
02:07:46 2 1014 0 0 SW 0 96.6 485
02:10:46 2 1014 0 1 S 0 96.6 483
02:13:48 2 1014 0 0 SW 0 96.6 490
02:16:49 2 1014 0 2 SW 0 96.6 492
02:19:48 2 1014 0 0 SO 0 96.6 490
02:22:46 2 1014 0 2 S 0 96.6 484
02:25:47 2 1013 0 0 W 0 96.6 487
02:28:48 2 1014 0 5 W 0 96.6 489
02:31:46 2 1014 0 0 S 0 96.6 486
02:34:48 2 1014 0 2 SO 0 96.6 486
02:37:49 2 1014 0 0 SO 0 96.6 480
02:40:46 2 1014 0 3 S 0 96.6 486
02:43:49 2 1014 0 1 SW 0 96.6 483
02:46:48 2 1013 0 4 SW 0 96.6 489
02:49:50 2 1014 0 2 SW 0 96.6 492
02:52:49 2 1014 0 2 SW 0 96.6 484
02:55:49 2 1013 0 2 NW 0 96.6 480
02:58:49 2 1013 0 3 S 0 96.6 484
03:01:47 2 1014 0 3 S 0 96.6 483
03:04:47 2 1014 0 2 SW 0 96.6 486
03:07:45 2 1013 0 2 SW 0 96.6 477
03:10:49 2 1014 0 2 SW 0 96.6 478
03:13:47 2 1013 0 2 SW 0 96.6 478
03:16:45 2 1013 0 0 W 0 96.6 483
03:19:45 2 1014 0 3 S 0 96.6 477
03:22:46 2 1013 0 0 N 0 96.6 480
03:25:48 2 1013 0 1 SW 0 96.6 480
03:28:50 2 1013 0 2 SW 0 96.6 483
03:31:47 2 1013 0 0 SO 0 96.6 480
03:34:47 2 1014 0 2 SW 0 96.6 473
03:37:45 2 1013 0 1 W 0 96.6 471
03:40:48 2 1013 0 2 S 0 96.6 469
03:43:45 2 1014 0 2 SO 0 96.6 471
03:46:47 2 1014 0 2 SW 0 96.6 463
03:49:49 2 1013 0 1 NW 0 96.6 462
03:52:48 2 1013 0 1 W 0 96.6 460
03:55:46 2 1013 0 0 SW 0 96.6 459
03:58:49 2 1013 0 2 SW 0 96.6 459
04:01:46 2 1014 0 1 SW 0 96.6 463
04:04:47 2 1013 0 2 SW 0 96.6 465
04:07:50 2 1014 0 4 SW 0 96.6 460
04:10:47 2 1014 0 0 SW 0 96.6 460
04:13:46 2 1013 0 3 SW 0 96.6 462
04:16:47 2 1013 0 0 SW 0 96.6 460
04:19:46 2 1013 0 1 SW 0 96.6 460
04:22:47 2 1013 0 2 SO 0 96.6 463
04:25:45 2 1013 0 0 W 0 96.6 462
04:28:48 2 1013 0 3 SW 0 96.6 468
04:31:46 2 1013 0 1 SW 0 96.6 465
04:34:50 2 1013 0 1 SW 0 96.6 465
04:37:47 2 1013 0 0 SW 0 96.6 458
04:40:48 2 1013 0 0 SW 0 96.6 459
04:43:48 2 1013 0 0 SO 0 96.6 460
04:46:46 2 1013 0 4 S 0 96.6 468
04:49:47 2 1013 0 0 NW 0 96.6 460
04:52:47 2 1013 0 1 SW 0 96.6 465
04:55:44 2 1013 0 2 S 0 96.6 468
04:58:46 2 1014 0 1 S 0 96.6 468
05:01:47 2 1013 0 0 W 0 96.6 463
05:04:47 2 1013 0 1 S 0 96.6 460
05:07:45 2 1013 0 1 S 0 96.6 467
05:10:47 2 1013 0 2 S 0 96.6 474
05:13:45 2 1013 0 3 S 0 96.6 474
05:16:47 2 1013 0 2 W 0 96.6 480
05:19:46 2 1013 0 3 SW 0 96.6 483
05:22:46 2 1013 0 0 S 0 96.6 472
05:25:46 2 1013 0 1 N 0 96.6 480
05:28:46 2 1013 0 2 NW 0 96.6 471
05:31:47 2 1013 0 2 SO 0 96.6 459
05:34:47 2 1013 0 0 S 0 96.6 460
05:37:44 2 1013 0 1 W 0 96.6 465
05:40:46 2 1013 0 3 SO 0 96.6 469
05:43:50 2 1013 0 6 SW 0 96.6 472
05:46:45 2 1013 0 0 O 0 96.6 471
05:49:49 2 1013 0 2 SO 0 96.6 463
05:52:49 2 1013 0 0 SW 0 96.6 462
05:55:48 2 1013 0 8 W 0 96.6 459
05:58:47 2 1013 0 0 W 0 96.6 459
06:01:45 2 1013 0 4 S 0 96.6 457
06:04:47 2 1013 0 4 S 0 96.6 459
06:07:47 2 1013 0 0 SW 0 96.6 459
06:10:48 2 1013 0 2 SO 0 96.6 466
06:13:45 2 1013 0 2 O 0 96.6 462
06:16:46 2 1013 0 0 W 0 96.6 466
06:19:49 2 1013 0 6 SW 0 96.6 465
06:22:47 2 1013 0 1 SO 0 96.6 468
06:25:46 2 1013 0 0 S 0 96.6 468
06:28:44 2 1013 0 1 O 0 96.6 469
06:31:48 2 1013 0 1 NW 0 96.6 468
06:34:46 2 1013 0 0 W 0 96.6 460
06:37:46 2 1013 0 1 S 0 96.6 462
06:40:47 2 1013 0 0 S 0 96.6 457
06:43:44 2 1013 0 4 O 0 96.6 468
06:46:46 2 1013 0 1 SO 0 96.6 463
06:49:46 2 1013 0 0 S 0 96.6 465
06:52:49 2 1013 0 1 S 0 96.6 458
06:55:45 2 1013 0 6 W 0 96.6 465
06:58:46 2 1013 0 1 S 0 96.6 457
07:01:46 2 1013 0 5 NW 0 96.6 456
07:04:46 2 1013 0 3 NW 0 96.6 451
07:07:45 2 1013 0 3 W 0 96.6 455
07:10:45 2 1013 0 1 W 0 96.6 452
07:13:46 2 1013 0 0 N 0 96.6 445
07:16:47 2 1013 0 4 NW 0 96.6 445
07:19:48 2 1013 0 6 SW 0 96.6 440
07:22:46 2 1013 0 1 SO 0 96.6 439
07:25:46 2 1013 0 10 SO 0 96.6 446
07:28:46 2 1013 0 6 SW 0 96.6 415
07:31:48 2 1013 0 2 W 0 96.6 416
07:34:45 2 1013 0 5 SW 0 96.6 430
07:37:48 2 1013 0 0 S 0 96.6 460
07:40:46 2 1013 0 8 W 0 96.6 480
07:43:45 2 1013 3 1 S 0 96.6 483
07:46:48 2 1013 5 9 NW 0 96.6 490
07:49:46 2 1013 9 1 SW 0 96.6 489
07:52:45 2 1013 12 3 SW 0 96.6 487
07:55:46 2 1013 17 5 SW 0 96.6 477
07:58:44 2 1013 24 6 0 96.6 472
08:01:48 1 1013 30 2 N 0 96.6 468
08:04:49 1 1013 36 2 NW 0 96.6 472
08:07:46 1 1013 43 0 O 0 96.6 474
08:10:50 1 1013 52 5 NW 0 96.6 477
08:13:48 1 1013 58 5 NW 0 96.6 485
08:16:49 1 1013 56 3 SW 0 96.6 489
08:19:47 1 1013 56 4 W 0 96.6 495
08:22:47 1 1013 57 6 W 0 96.6 495
08:25:45 1 1013 50 3 W 0 96.6 495
08:28:46 1 1013 58 3 W 0 96.6 501
08:31:48 1 1013 68 8 W 0 96.6 506
08:34:48 1 1013 71 3 W 0 96.6 498
08:37:48 1 1013 63 6 W 0 96.6 503
08:40:49 1 1013 62 3 SW 0 96.6 500
08:43:48 1 1013 65 2 SW 0 96.6 501
08:46:47 1 1013 79 5 SO 0 96.6 504
08:49:48 1 1013 86 7 S 0 96.6 509
08:52:49 1 1013 89 6 SO 0 96.6 519
08:55:48 1 1013 84 3 S 0 96.6 513
08:58:45 1 1013 86 2 S 0 96.6 504
09:01:47 1 1013 84 9 SW 0 96.6 504
09:04:46 1 1013 85 2 O 0 96.6 507
09:07:48 1 1013 92 0 S 0 96.6 500
09:10:49 1 1013 94 0 SW 0 96.6 497
09:13:48 2 1013 102 2 O 0 96.6 501
09:16:47 2 1013 100 0 W 0 96.6 507
09:19:47 2 1013 107 0 O 0 96.6 509
09:22:48 2 1013 113 1 NO 0 96.6 516
09:25:47 1 1013 117 4 SW 0 96.6 518
09:28:49 1 1013 118 7 W 0 96.6 527
09:31:46 1 1013 119 1 O 0 96.6 521
09:34:48 1 1013 122 4 NW 0 96.6 524
09:37:46 1 1013 123 5 SW 0 96.6 522
09:40:52 1 1013 128 3 SW 0 96.6 513
09:43:47 1 1013 127 3 W 0 96.6 507
09:46:48 1 1013 127 3 W 0 96.6 521
09:49:48 1 1013 129 7 SW 0 96.6 524
09:52:46 1 1013 127 2 S 0 96.6 518
09:55:47 1 1013 131 6 S 0 96.6 509
09:58:48 1 1013 133 4 S 0 96.6 506
10:01:48 1 1013 135 3 W 0 96.6 512
10:04:47 1 1013 135 4 SW 0 96.6 506
10:07:46 1 1013 133 5 W 0 96.6 512
10:10:47 1 1013 140 2 SW 0 96.6 506
10:13:46 1 1013 144 9 NW 0 96.6 512
10:16:47 1 1013 137 2 SW 0 96.6 509
10:19:49 1 1013 140 4 SW 0 96.6 462
10:22:47 1 1013 141 10 SW 0 96.6 407
10:25:47 1 1013 141 5 SW 0 96.6 424
10:28:48 1 1013 134 9 W 0 96.6 458
10:31:49 1 1013 132 4 NW 0 96.6 469
10:34:47 1 1013 135 13 NW 0 96.6 468
10:37:47 1 1013 137 10 S 0 96.6 471
10:40:48 1 1013 133 3 S 0 96.6 475
10:43:47 1 1013 136 5 SW 0 96.6 463
10:46:47 1 1013 132 9 W 0 96.6 454
10:49:47 1 1013 129 2 SW 0 96.6 454
10:52:48 1 1013 134 2 NW 0 96.6 451
10:55:48 1 1013 135 19 SW 0 96.6 455
10:58:45 1 1013 133 7 S 0 96.6 448
11:01:46 1 1013 135 4 S 0 96.6 451
11:04:47 1 1013 135 5 NW 0 96.6 450
11:07:49 1 1013 133 14 SW 0 96.6 459
11:10:47 1 1013 138 7 NO 0 96.6 457
11:13:48 1 1013 138 9 NO 0 96.6 465
11:16:45 1 1013 143 5 W 0 96.6 462
11:19:47 1 1013 143 6 NW 0 96.6 457
11:22:47 1 1013 140 7 SW 0 96.6 460
11:25:46 1 1013 136 5 SW 0 96.6 457
11:28:46 1 1014 138 10 W 0 96.6 453
11:31:48 1 1013 138 10 W 0 96.6 448
11:34:45 1 1013 136 6 SW 0 96.6 443
11:37:48 1 1013 135 13 NW 0 96.6 454
11:40:48 1 1013 134 3 W 0 96.6 468
11:43:48 1 1013 140 5 SW 0 96.6 471
11:46:44 1 1013 143 11 W 0 96.6 471
11:49:47 1 1013 134 6 W 0 96.6 469
11:52:46 1 1013 147 7 W 0 96.6 474
11:55:47 1 1013 149 16 W 0 96.6 468
11:58:46 1 1013 150 7 S 0 96.6 464
12:01:47 1 1013 147 3 W 0 96.6 466
12:04:47 1 1013 150 8 SW 0 96.6 465
12:07:44 1 1013 147 5 W 0 96.6 465
12:10:46 1 1013 140 9 W 0 96.6 461
12:13:48 1 1013 138 8 SW 0 96.6 472
12:16:46 1 1012 71 11 W 0 96.6 475
12:19:48 1 1013 71 9 NW 0 96.6 404
12:22:47 1 1013 142 2 NO 0 96.6 407
12:25:46 1 1013 146 1 N 0 96.6 406
12:28:46 1 1013 144 10 W 0 96.6 405
12:31:47 1 1013 149 12 NO 0 96.6 407
12:34:47 1 1013 153 8 NO 0 96.6 407
12:37:46 1 1013 150 5 NW 0 96.6 404
12:40:49 1 1013 125 4 NW 0 96.6 406
12:43:49 1 1013 130 7 SW 0 96.6 407
12:46:46 1 1013 166 3 W 0 96.6 407
12:49:46 1 1013 155 1 S 0 96.6 404
12:52:47 1 1013 144 4 SW 0 96.6 404
12:55:47 1 1013 162 12 W 0 96.6 407
12:58:47 1 1013 162 8 SW 0 96.6 407
13:01:46 1 1013 175 5 W 0 96.6 407
13:04:47 1 1013 171 10 SW 0 96.6 406
13:07:48 1 1013 148 3 SW 0 96.6 407
13:10:47 1 1013 151 8 SW 0 96.6 404
13:13:45 1 1013 176 4 S 0 96.6 407
13:16:47 1 1013 173 3 SW 0 96.6 405
13:19:47 1 1013 174 0 S 0 96.6 406
13:22:48 1 1013 171 7 SW 0 96.6 404
13:25:46 1 1012 177 11 N 0 96.6 405
13:28:46 1 1012 172 2 SW 0 96.6 404
13:31:48 1 1013 177 2 S 0 96.6 407
13:34:48 1 1013 174 1 SW 0 96.6 406
13:37:48 2 1013 176 7 SO 0 96.6 407
13:40:48 2 1013 177 11 SW 0 96.6 404
13:43:49 2 1012 176 0 SO 0 96.6 404
13:46:46 2 1012 174 1 O 0 96.6 404
13:49:48 2 1012 174 0 S 0 96.6 407
13:52:47 2 1012 176 4 SW 0 96.6 404
13:55:45 2 1012 172 3 S 0 96.6 407
13:58:48 2 1012 174 2 W 0 96.6 407
14:01:48 2 1013 174 1 NW 0 96.6 406
14:04:45 2 1011 168 4 O 0 96.6 407
14:07:47 2 1012 165 2 S 0 96.6 407
14:10:47 2 1012 161 9 W 0 96.6 406
14:13:46 2 1012 161 2 S 0 96.6 404
14:16:47 2 1013 156 0 SW 0 96.6 404
14:19:47 2 1013 161 0 NW 0 96.6 404
14:22:47 2 1012 150 6 SW 0 96.6 407
14:25:48 2 1012 143 1 NO 0 96.6 404
14:28:46 2 1012 147 1 S 0 96.6 404
14:31:47 2 1012 156 0 N 0 96.6 406
14:34:46 2 1012 157 1 SW 0 96.6 404
14:37:47 2 1012 149 0 SO 0 96.6 403
14:40:49 2 1012 168 4 SW 0 96.6 404
14:43:49 2 1012 168 5 NW 0 96.6 404
14:46:48 2 1012 171 3 SO 0 96.6 407
14:49:47 2 1012 177 1 SW 0 96.6 404
14:52:46 2 1012 167 1 S 0 96.6 404
14:55:50 2 1012 164 1 S 0 96.6 406
14:58:49 2 1012 162 2 SW 0 96.6 407
15:01:48 2 1011 159 3 SW 0 96.6 407
15:04:46 2 1012 154 2 W 0 96.6 411
15:07:48 2 1011 154 1 S 0 96.6 419
15:10:49 2 1012 137 3 S 0 96.6 425
15:13:49 2 1012 137 14 W 0 96.6 433
15:16:48 2 1011 139 3 NW 0 96.6 430
15:19:48 2 1012 142 2 W 0 96.6 436
15:22:53 2 1012 152 6 SW 0 96.6 436
15:25:46 2 1011 150 4 SW 0 96.6 433
15:28:49 2 1012 144 8 S 0 96.6 419
15:31:46 2 1011 134 6 SO 0 96.6 418
15:34:49 2 1011 128 5 S 0 96.6 427
15:37:46 2 1011 122 4 W 0 96.6 433
15:40:46 2 1012 124 2 S 0 96.6 427
15:43:48 2 1011 118 21 SW 0 96.6 433
15:46:45 2 1011 138 5 SW 0 96.6 435
15:49:45 2 1011 134 11 S 0 96.6 439
15:52:46 2 1011 135 6 S 0 96.6 451
15:55:49 2 1012 146 5 SW 0 96.6 462
15:58:48 2 1011 139 6 SO 0 96.6 460
16:01:47 2 1011 144 3 O 0 96.6 466
16:04:47 2 1011 136 3 SW 0 96.6 465
16:07:47 2 1011 133 2 SO 0 96.6 465
16:10:48 2 1012 128 5 SO 0 96.6 468
16:13:48 2 1012 121 12 SW 0 96.6 465
16:16:46 2 1011 123 1 W 0 96.6 469
16:19:46 2 1011 113 5 S 0 96.6 468
16:22:47 2 1010 100 11 SW 0 96.6 462
16:25:47 2 1011 90 6 W 0 96.6 460
16:28:46 2 1011 78 1 O 0 96.6 465
16:31:46 2 1011 68 7 NW 0 96.6 472
16:34:47 2 1011 63 1 W 0 96.6 474
16:37:48 2 1011 53 4 SO 0 96.6 468
16:40:49 2 1010 45 2 NW 0 96.6 465
16:43:48 2 1011 41 2 SO 0 96.6 462
16:46:44 2 1010 35 4 O 0 96.6 471
16:49:46 2 1010 32 1 SO 0 96.6 471
16:52:47 2 1012 24 2 N 0 96.6 469
16:55:48 2 1010 18 3 NW 0 96.6 463
16:58:47 2 1011 17 9 O 0 96.6 460
17:01:45 2 1011 11 1 NO 0 96.6 457
17:04:48 2 1010 10 2 S 0 96.6 457
17:07:46 2 1011 7 7 SW 0 96.6 451
17:10:47 2 1010 3 3 N 0 96.6 457
17:13:46 2 1011 0 2 W 0 96.6 457
17:16:45 2 1011 0 5 W 0 96.6 460
17:19:47 2 1010 0 5 SW 0 96.6 457
17:22:45 2 1011 0 7 S 0 96.6 462
17:25:47 2 1011 0 6 SW 0 96.6 472
17:28:47 2 1010 0 14 NW 0 96.6 480
17:31:46 2 1011 0 4 NO 0 96.6 474
17:34:47 2 1010 0 1 S 0 96.6 473
17:37:47 2 1010 0 13 N 0 96.6 474
17:40:47 2 1010 0 8 S 0 96.6 477
17:43:48 2 1011 0 4 SO 0 96.6 486
17:46:46 2 1011 0 1 N 0 96.6 483
17:49:48 2 1010 0 3 O 0 96.6 497
17:52:47 2 1011 0 1 SW 0 96.6 489
17:55:48 2 1011 0 8 SW 0 96.6 492
17:58:46 2 1010 0 4 NW 0 96.6 492
18:01:48 2 1010 0 3 S 0 96.6 495
18:04:47 2 1010 0 6 W 0 96.6 498
18:07:45 2 1011 0 4 O 0 96.6 501
18:10:49 2 1010 0 2 N 0 96.6 509
18:13:47 2 1010 0 4 S 0 96.6 515
18:16:48 2 1011 0 6 SW 0 96.6 506
18:19:47 2 1010 0 14 S 0 96.6 509
18:22:48 2 1010 0 5 O 0 96.6 506
18:25:45 2 1011 0 8 W 0 96.6 506
18:28:46 2 1010 0 12 W 0 96.6 509
18:31:48 2 1010 0 2 NO 0 96.6 497
18:34:48 2 1011 0 6 W 0 96.6 498
18:37:47 2 1011 0 4 NW 0 96.6 486
18:40:47 2 1011 0 1 SW 0 96.6 483
18:43:47 2 1010 0 1 SO 0 96.6 477
18:46:45 2 1010 0 8 S 0 96.6 478
18:49:45 2 1011 0 4 O 0 96.6 480
18:52:46 2 1011 0 1 S 0 96.6 483
18:55:48 2 1010 0 1 NO 0 96.6 486
18:58:48 2 1010 0 5 W 0 96.6 486
19:01:48 2 1010 0 15 NW 0 96.6 489
19:04:46 2 1010 0 1 W 0 96.6 489
19:07:46 2 1010 0 1 SW 0 96.6 497
19:10:48 2 1010 0 10 0 96.6 495
19:13:47 2 1010 0 7 SW 0 96.6 497
19:16:48 2 1010 0 3 SW 0 96.6 492
19:19:48 2 1010 0 0 NO 0 96.6 489
19:22:50 2 1010 0 10 SW 0 96.6 486
19:25:47 2 1010 0 1 SO 0 96.6 489
19:28:48 2 1010 0 12 W 0 96.6 477
19:31:47 2 1010 0 2 SW 0 96.6 480
19:34:49 2 1010 0 3 SO 0 96.6 477
19:37:48 2 1010 0 4 SW 0 96.6 469
19:40:46 2 1010 0 7 SW 0 96.6 474
19:43:46 2 1010 0 2 NW 0 96.6 467
19:46:49 2 1010 0 6 SW 0 96.6 466
19:49:48 2 1010 0 7 SW 0 96.6 457
19:52:45 2 1010 0 8 O 0 96.6 457
19:55:46 2 1010 0 2 SO 0 96.6 457
19:58:47 2 1010 0 5 SW 0 96.6 446
20:01:46 2 1010 0 9 NW 0 96.6 442
20:04:47 2 1010 0 2 S 0 96.6 434
20:07:47 2 1010 0 2 S 0 96.6 428
20:10:48 2 1010 0 6 S 0 96.6 428
20:13:46 2 1010 0 10 SO 0 96.6 439
20:16:44 2 1010 0 3 SW 0 96.6 447
20:19:49 2 1010 0 11 SW 0 96.6 463
20:22:47 2 1010 0 3 SW 0 96.6 465
20:25:47 2 1010 0 3 W 0 96.6 468
20:28:46 2 1010 0 5 S 0 96.6 472
20:31:47 2 1010 0 2 N 0 96.6 488
20:34:45 2 1010 0 2 S 0 96.6 500
20:37:46 2 1010 0 8 SO 0 96.6 510
20:40:49 2 1010 0 7 SW 0 96.6 507
20:43:47 2 1010 0 3 W 0 96.6 507
20:46:45 2 1010 0 4 W 0 96.6 510
20:49:47 2 1010 0 2 W 0 96.6 512
20:52:45 2 1010 0 6 SW 0 96.6 511
20:55:48 2 1010 0 3 SW 0 96.6 512
20:58:45 2 1010 0 1 W 0 96.6 515
21:01:46 2 1009 0 3 S 0 96.6 515
21:04:48 2 1010 0 4 SW 0 96.6 518
21:07:49 2 1010 0 8 S 0 96.6 515
21:10:47 2 1010 0 1 SW 0 96.6 510
21:13:51 2 1010 0 4 W 0 96.6 636
21:16:48 2 1010 0 10 SO 0 96.6 633
21:19:46 2 1010 0 2 N 0 96.6 630
21:22:46 2 1010 0 7 W 0 96.6 644
21:25:46 2 1010 0 3 N 0 96.6 650
21:28:45 2 1010 0 2 O 0 96.6 648
21:31:49 2 1010 0 3 SW 0 96.6 651
21:34:46 2 1009 0 5 SO 0 96.6 652
21:37:47 2 1010 0 1 NW 0 96.6 657
21:40:48 2 1010 0 1 W 0 96.6 656
21:43:48 2 1010 0 3 W 0 96.6 658
21:46:47 2 1010 0 4 W 0 96.6 656
21:49:45 2 1009 0 3 W 0 96.6 655
21:52:46 2 1010 0 7 NO 0 96.6 653
21:55:47 2 1010 0 7 SW 0 96.6 650
21:58:48 2 1009 0 3 SO 0 96.6 661
22:01:47 2 1010 0 4 SW 0 96.6 664
22:04:48 2 1009 0 12 SO 0 96.6 664
22:07:46 2 1010 0 0 N 0 96.6 659
22:10:47 2 1010 0 3 SO 0 96.6 653
22:13:47 2 1009 0 5 S 0 96.6 662
22:16:47 2 1010 0 1 O 0 96.6 660
22:19:47 2 1009 0 1 W 0 96.6 663
22:22:46 2 1009 0 2 N 0 96.6 659
22:25:49 2 1009 0 4 S 0 96.6 659
22:28:48 2 1010 0 3 SO 0 96.6 662
22:31:48 2 1010 0 5 SW 0 96.6 665
22:34:48 2 1010 0 4 SW 0 96.6 664
22:37:47 2 1009 0 7 SW 0 96.6 660
22:40:48 2 1010 0 7 SW 0 96.6 662
22:43:47 2 1009 0 4 NO 0 96.6 671
22:46:47 2 1009 0 3 O 0 96.6 677
22:49:46 2 1009 0 1 SW 0 96.6 674
22:52:47 2 1010 0 11 N 0 96.6 671
22:55:49 2 1010 0 4 W 0 96.6 664
22:58:49 2 1009 0 15 NW 0 96.6 664
23:01:45 2 1010 0 1 O 0 96.6 667
23:04:47 2 1010 0 2 W 0 96.6 677
23:07:48 2 1010 0 6 SW 0 96.6 677
23:10:46 2 1009 0 8 O 0 96.6 690
23:13:46 2 1009 0 5 S 0 96.6 685
23:16:47 2 1010 0 6 W 0 96.6 679
23:19:47 2 1009 0 5 SW 0 96.6 670
23:22:48 2 1009 0 2 NO 0 96.6 679
23:25:48 2 1009 0 7 SO 0 96.6 688
23:28:49 2 1009 0 5 SW 0 96.6 685
23:31:46 2 1009 0 6 O 0 96.6 688
23:34:48 2 1009 0 5 NO 0 96.6 685
23:37:46 2 1009 0 3 SW 0 96.6 692
23:40:45 2 1010 0 0 W 0 96.6 689
23:43:50 2 1009 0 3 W 0 96.6 686
23:46:48 2 1010 0 5 S 0 96.6 679
23:49:51 2 1009 0 5 O 0 96.6 689
23:52:45 2 1009 0 4 S 0 96.6 691
23:55:47 2 1009 0 5 NO 0 96.6 706
23:58:48 2 1008 0 4 O 0 96.6 710

Letzte Änderung : 22-Jul-2022
Copyright Jens Köhler, Wolfsburg, Obere Dorfstraße 10d